Погода в Агрызе

Россия / Республика Татарстан     56°31′34″N   52°59′42″E
темп.,
°C
ветер,
м/с
пор.,
м/с
влажн.,
%
обл.,
%
осадки,
мм/ч
давл.,
гПа
погр.,
м
11 мая, вт
вт1100:00+14ссв3472100 0.0 102250
03:00+13ссв2281100 0.0 102434
06:00+16св1270100 0.0 1024105
09:00+21в2249100 0.0 1026514
12:00+24св1139100 0.0 10261222
15:00+25вюв013449 0.0 10262474
18:00+21с355379 0.0 1027128
21:00+17всв226715 0.0 102725
12 мая, ср
ср1200:00+15ссв22742 0.0 102815
03:00+14св22826 0.0 102821
06:00+17св23745 0.0 1029201
09:00+21всв33553 0.0 1029719
12:00+25юв22420 0.0 10281696
15:00+25ю213679 0.0 10272486
18:00+22ю114670 0.0 102711
21:00+18ююв115214 0.0 102811
13 мая, чт
чт1300:00+17юз11521 0.0 102811
03:00+15ююв00565 0.0 102811
06:00+19в11525 0.0 102889
09:00+23юв334249 0.0 1028754
12:00+25ююв443787 0.0 10272117
15:00+25ю34316 0.0 10261815
18:00+23ю22465 0.0 102612
21:00+18ююв22530 0.0 102611
14 мая, пт
пт1400:00+16ююв225717 0.0 102611
03:00+15ююв226119 0.0 102613
06:00+18ююв255724 0.0 1026174
09:00+24ю46405 0.0 1025680
12:00+27ю57305 0.0 10241660
15:00+27ююз58305 0.0 10231804
18:00+23ююз3850100 0.0 1022197
21:00+19ююз355798 0.0 102274
15 мая, сб
сб1500:00+17ююз356358 0.0 102266
03:00+15юз337150 0.3 102331
06:00+19ююз38595 0.1 1023237
09:00+24юз573957 0.1 1022667
12:00+27юз683167 0.0 10211271
15:00+27юз67325 0.0 10211397
18:00+24ююз375064 0.0 1020143
21:00+19юз3356100 0.0 101938